User: anonymous   Login
Location: Bothwell
(42.3833°S, 147.0000°E)
Time: 06:12:37
(UTC+10:00)
Language:

CAS-4A - Orbit

View from above orbital plane
View from above orbital plane
View from above satellite
View from above satellite

Ground track
Ground track

The orbit data is extracted from the following two-line orbital elements,

1 42761U 17034D   22267.16639530  .00003788  00000-0  22560-3 0  9991
2 42761  43.0174 147.0655 0009537 201.3763 296.6203 15.12606543291301
Epoch (UTC): 24 September 2022 03:59:36
Eccentricity: 0.0009537
inclination: 43.0174°
perigee height: 521 km
apogee height: 535 km
right ascension of ascending node: 147.0655°
argument of perigee: 201.3763°
revolutions per day: 15.12606543
mean anomaly at epoch: 296.6203°
orbit number at epoch: 29130

The dashed part of the orbit path shows where the satellite is in the earth's shadow,  

DLR